THOR ABLESTAR DEB, 234

Orbit data source: Space-Track

THOR ABLESTAR DEB, 234 is space debris in LEO originally from a launch on Thu, 29 Jun 1961 UTC launched from the Air Force Eastern Test Range (AFETR). Debris objects in space refer to the collection of defunct objects orbiting the Earth. Examples of debris include non-operational satellites, rocket bodies, and fragments generated from explosions, collisions, or faulty payload assembly.

Loading next visibility...
Identifier
234, 1961-015BS
Orbit
LEO
Country
Flag of USUS
Related business
Manufacturer
Unknown
Mission
Spacecraft
Bus & Motor
Unknown
Mass
Unknown
Launch date (UTC)
1961-06-29 (65 years ago)
Launch vehicle
Unknown
Launch site
Air Force Eastern Test Range (AFETR)
Object type
Payload
Rocket body
Debris
Shape & HBR
Unknown shape, 0.1 m
Radar Cross Section
Small (<0.1 m²)

Expand to show TLE details & history
Last TLE update: 14 hours ago

TLE from 14 hours ago
0 THOR ABLESTAR DEB
1 00234U 61015BS  26140.33317104  .00000141  00000-0  13607-3 0  9993
2 00234  66.8761 230.5078 0066439 153.9702 206.4751 14.04090575307522
Epoch: 2026-05-20T07:59Z
TLE epoch observation values (Epoch: 2026-05-20T07:59:45.977Z)
Latitude
-0.00004°
Longitude
-127.42802°
Altitude
924.991 km
Speed
7.368 km/s
True Right ascension
15h 22m 01s
True Declination
0° 00' 00"
Sunlit
Object was in full shadow at epoch
Visualization orbit readout
Latitude
Unknown
Longitude
Unknown
Altitude
Unknown
Speed
Unknown
Apparent Right ascension
Unknown
Apparent Declination
Unknown
Sunlit
N/A
Visualization observer readout
Local Sidereal Time
06:47:13
Azimuth
Unknown
Elevation
Unknown
Doppler factor
Unknown
Orbital elements
Apogee altitude
926.248 km
Perigee altitude
829.83 km
Semi-major axis
7,256.176 km
Eccentricity
0.00664
Inclination
66.8761°
RAAN
230.5078°
Arg. of periapsis
153.9702°
True anomaly
206.1382°
Mean anomaly
206.4751°
Eccentric anomaly
206.3064°
Mean motion
3.51141 °/min
Orbital period
102.52 mins
BSTAR
0.00013607
Loading maneuver chart data...
Computing Atmospheric mass density...

Documentation

Showing up to 5 results
|